ICE648 KIAD-BIKF

Flight info

Callsign ICE648
Flight time 5h 40m
Altitude 35000
Route JCOBY4 SWANN DCT BROSS Q419 RBV Q22 FOXWD DCT WITCH DCT TOPPS DCT MELDI/M078F370 DCT 56N050W 5930N04000W 63N030W DCT EPENI DCT ELDIS ELDIS4N
Aircraft B38M/M-SDE1FGHILORVWXY/HB1

Departure

Time 2026-05-05 14:50
Airport Washington Dulles International Airport (KIAD)

Arrival

Time 2026-05-05 20:31
Airport Keflavik International Airport (BIKF)
Time Latitude Longitude Altitude Speed Heading
2026-05-05 14:31 38.94812 -77.44669 295 ft 0 kts 15°
2026-05-05 14:38 38.94812 -77.44670 295 ft 1 kts 15°
2026-05-05 14:38 38.94788 -77.44676 297 ft 4 kts
2026-05-05 14:39 38.94762 -77.44674 296 ft 4 kts 347°
2026-05-05 14:39 38.94738 -77.44662 295 ft 4 kts 319°
2026-05-05 14:39 38.94727 -77.44639 298 ft 1 kts 270°
2026-05-05 14:39 38.94727 -77.44638 298 ft 0 kts 270°
2026-05-05 14:43 38.94727 -77.44639 295 ft 0 kts 270°
2026-05-05 14:43 38.94727 -77.44650 295 ft 3 kts 270°
2026-05-05 14:43 38.94727 -77.44706 296 ft 10 kts 269°
2026-05-05 14:43 38.94727 -77.44820 295 ft 14 kts 269°
2026-05-05 14:44 38.94727 -77.44952 298 ft 15 kts 270°
2026-05-05 14:44 38.94728 -77.45094 296 ft 16 kts 274°
2026-05-05 14:44 38.94732 -77.45242 295 ft 17 kts 270°
2026-05-05 14:44 38.94733 -77.45394 295 ft 17 kts 270°
2026-05-05 14:45 38.94735 -77.45542 295 ft 14 kts 274°
2026-05-05 14:45 38.94754 -77.45673 298 ft 15 kts 267°
2026-05-05 14:45 38.94671 -77.45723 297 ft 15 kts 182°
2026-05-05 14:45 38.94565 -77.45725 297 ft 16 kts 181°
2026-05-05 14:46 38.94455 -77.45725 297 ft 16 kts 179°
2026-05-05 14:46 38.94341 -77.45726 297 ft 17 kts 181°
2026-05-05 14:46 38.94223 -77.45728 297 ft 17 kts 180°
2026-05-05 14:46 38.94102 -77.45729 296 ft 18 kts 180°
2026-05-05 14:47 38.93976 -77.45731 298 ft 18 kts 180°
2026-05-05 14:47 38.93849 -77.45733 297 ft 16 kts 181°
2026-05-05 14:47 38.93753 -77.45685 298 ft 16 kts 131°
2026-05-05 14:47 38.93677 -77.45573 299 ft 17 kts 131°
2026-05-05 14:48 38.93611 -77.45496 298 ft 11 kts 168°
2026-05-05 14:48 38.93535 -77.45522 296 ft 12 kts 200°
2026-05-05 14:48 38.93453 -77.45560 297 ft 13 kts 200°
2026-05-05 14:48 38.93381 -77.45601 298 ft 7 kts 221°
2026-05-05 14:49 38.93380 -77.45651 295 ft 6 kts 289°
2026-05-05 14:49 38.93392 -77.45695 299 ft 5 kts 290°
2026-05-05 14:49 38.93402 -77.45728 296 ft 9 kts 290°
2026-05-05 14:49 38.93510 -77.46097 300 ft 82 kts 290°
2026-05-05 14:50 38.93792 -77.47059 304 ft 147 kts 291°
2026-05-05 14:50 38.94229 -77.48501 474 ft 183 kts 288°
2026-05-05 14:50 38.94746 -77.50025 1171 ft 193 kts 290°
2026-05-05 14:50 38.95375 -77.51582 2006 ft 199 kts 303°
2026-05-05 14:51 38.96316 -77.52971 2652 ft 220 kts 308°
2026-05-05 14:51 38.97387 -77.54543 3258 ft 239 kts 307°
2026-05-05 14:51 38.98544 -77.56156 4095 ft 255 kts 320°
2026-05-05 14:51 39.00235 -77.56956 5050 ft 268 kts 353°
2026-05-05 14:52 39.02109 -77.56560 5833 ft 287 kts 19°
2026-05-05 14:52 39.03770 -77.55064 6573 ft 297 kts 51°
2026-05-05 14:52 39.04852 -77.52794 7375 ft 304 kts 60°
2026-05-05 14:52 39.05979 -77.50426 8049 ft 315 kts 58°
2026-05-05 14:53 39.07156 -77.48033 8910 ft 319 kts 58°
2026-05-05 14:53 39.08372 -77.45592 9631 ft 328 kts 58°
2026-05-05 14:53 39.09618 -77.43113 10334 ft 336 kts 58°
2026-05-05 14:53 39.10938 -77.40511 10721 ft 355 kts 57°
2026-05-05 14:54 39.12325 -77.37779 11170 ft 371 kts 57°
2026-05-05 14:54 39.13743 -77.34965 11852 ft 376 kts 57°
2026-05-05 14:54 39.14943 -77.31980 12631 ft 377 kts 75°
2026-05-05 14:54 39.15324 -77.28661 13366 ft 375 kts 96°
2026-05-05 14:55 39.14934 -77.25346 13983 ft 376 kts 105°
2026-05-05 14:55 39.14407 -77.22030 14594 ft 380 kts 105°
2026-05-05 14:55 39.13859 -77.18670 15160 ft 386 kts 104°
2026-05-05 14:55 39.13673 -77.15187 15788 ft 392 kts 89°
2026-05-05 14:56 39.13745 -77.11657 16366 ft 397 kts 90°
2026-05-05 14:56 39.13811 -77.08085 16981 ft 400 kts 89°
2026-05-05 14:56 39.13878 -77.04493 17566 ft 404 kts 89°
2026-05-05 14:56 39.13947 -77.00850 18153 ft 408 kts 89°
2026-05-05 14:57 39.14015 -76.97179 18660 ft 411 kts 89°
2026-05-05 14:57 39.14082 -76.93491 19195 ft 413 kts 89°
2026-05-05 14:57 39.14148 -76.89779 19725 ft 415 kts 89°
2026-05-05 14:57 39.14214 -76.86061 20253 ft 417 kts 89°
2026-05-05 14:58 39.14278 -76.82313 20754 ft 420 kts 89°
2026-05-05 14:58 39.14343 -76.78543 21257 ft 422 kts 89°
2026-05-05 14:58 39.14406 -76.74756 21780 ft 423 kts 89°
2026-05-05 14:58 39.14468 -76.70956 22234 ft 425 kts 89°
2026-05-05 14:59 39.14529 -76.67141 22734 ft 427 kts 89°
2026-05-05 14:59 39.14589 -76.63306 23217 ft 429 kts 89°
2026-05-05 14:59 39.14648 -76.59455 23666 ft 431 kts 89°
2026-05-05 14:59 39.14707 -76.55579 24052 ft 433 kts 89°
2026-05-05 15:00 39.14764 -76.51697 24428 ft 435 kts 89°
2026-05-05 15:00 39.14802 -76.49108 24670 ft 437 kts 89°
2026-05-05 15:00 39.14875 -76.43857 25167 ft 440 kts 89°
2026-05-05 15:00 39.14929 -76.39962 25526 ft 442 kts 89°
2026-05-05 15:01 39.14982 -76.35998 25892 ft 444 kts 88°
2026-05-05 15:01 39.15034 -76.32014 26244 ft 446 kts 88°
2026-05-05 15:01 39.15085 -76.28023 26590 ft 448 kts 88°
2026-05-05 15:01 39.15140 -76.24012 26939 ft 449 kts 87°
2026-05-05 15:02 39.15487 -76.20022 27263 ft 450 kts 80°
2026-05-05 15:02 39.15944 -76.16020 27585 ft 452 kts 80°
2026-05-05 15:02 39.16403 -76.12003 27895 ft 454 kts 81°
2026-05-05 15:02 39.16864 -76.07966 28140 ft 458 kts 81°
2026-05-05 15:03 39.17328 -76.03895 28455 ft 460 kts 81°
2026-05-05 15:03 39.17793 -75.99809 28771 ft 462 kts 81°
2026-05-05 15:03 39.18258 -75.95712 29095 ft 464 kts 81°
2026-05-05 15:03 39.18908 -75.91651 29411 ft 462 kts 69°
2026-05-05 15:04 39.20290 -75.87940 29688 ft 459 kts 53°
2026-05-05 15:04 39.22369 -75.84846 29926 ft 456 kts 39°
2026-05-05 15:04 39.24732 -75.82106 30131 ft 459 kts 38°
2026-05-05 15:04 39.27139 -75.79383 30372 ft 460 kts 38°
2026-05-05 15:05 39.32022 -75.73973 30652 ft 468 kts 37°
2026-05-05 15:05 39.34508 -75.71243 30953 ft 468 kts 37°
2026-05-05 15:05 39.36153 -75.69438 31101 ft 469 kts 37°
2026-05-05 15:06 39.38645 -75.66704 31352 ft 471 kts 37°
2026-05-05 15:06 39.41142 -75.63961 31641 ft 471 kts 37°
2026-05-05 15:06 39.43640 -75.61215 31852 ft 473 kts 37°
2026-05-05 15:06 39.46149 -75.58453 32136 ft 473 kts 37°
2026-05-05 15:07 39.48650 -75.55699 32454 ft 472 kts 37°
2026-05-05 15:07 39.51152 -75.52939 32765 ft 471 kts 37°
2026-05-05 15:07 39.53642 -75.50191 33068 ft 471 kts 37°
2026-05-05 15:07 39.56126 -75.47446 33373 ft 470 kts 37°
2026-05-05 15:08 39.58615 -75.44693 33665 ft 469 kts 37°
2026-05-05 15:08 39.61098 -75.41944 33953 ft 469 kts 38°
2026-05-05 15:08 39.63573 -75.39201 34149 ft 470 kts 38°
2026-05-05 15:08 39.66063 -75.36440 34341 ft 470 kts 38°
2026-05-05 15:09 39.68542 -75.33687 34557 ft 470 kts 38°
2026-05-05 15:09 39.71028 -75.30924 34798 ft 469 kts 38°
2026-05-05 15:09 39.73510 -75.28164 34955 ft 470 kts 38°
2026-05-05 15:10 39.78502 -75.22588 34951 ft 476 kts 40°
2026-05-05 15:10 39.82961 -75.16192 34959 ft 479 kts 46°
2026-05-05 15:11 39.87358 -75.09674 34954 ft 478 kts 46°
2026-05-05 15:11 39.91741 -75.03152 34954 ft 479 kts 46°
2026-05-05 15:12 39.96125 -74.96610 34957 ft 480 kts 48°
2026-05-05 15:12 39.99933 -74.89513 34972 ft 482 kts 55°
2026-05-05 15:13 40.03647 -74.82244 34949 ft 481 kts 55°
2026-05-05 15:13 40.07351 -74.74964 34952 ft 482 kts 55°
2026-05-05 15:14 40.11054 -74.67671 34947 ft 482 kts 55°
2026-05-05 15:14 40.14751 -74.60373 34939 ft 482 kts 55°
2026-05-05 15:15 40.18447 -74.53060 34935 ft 482 kts 55°
2026-05-05 15:15 40.20448 -74.49581 34920 ft 478 kts 43°
2026-05-05 15:15 40.22955 -74.46756 34977 ft 475 kts 37°
2026-05-05 15:16 40.28052 -74.41194 34955 ft 477 kts 37°
2026-05-05 15:16 40.33197 -74.35668 34958 ft 478 kts 37°
2026-05-05 15:17 40.38346 -74.30147 34956 ft 479 kts 37°
2026-05-05 15:17 40.43499 -74.24613 34936 ft 479 kts 37°
2026-05-05 15:18 40.48647 -74.19073 34943 ft 479 kts 37°
2026-05-05 15:18 40.53793 -74.13524 34934 ft 479 kts 37°
2026-05-05 15:19 40.58940 -74.07963 34934 ft 479 kts 38°
2026-05-05 15:19 40.64081 -74.02395 34954 ft 479 kts 38°
2026-05-05 15:20 40.69226 -73.96814 34949 ft 479 kts 38°
2026-05-05 15:20 40.74328 -73.91266 34935 ft 479 kts 38°
2026-05-05 15:21 40.79462 -73.85673 34927 ft 479 kts 38°
2026-05-05 15:21 40.84595 -73.80069 34941 ft 479 kts 39°
2026-05-05 15:21 40.86911 -73.76905 34902 ft 480 kts 53°
2026-05-05 15:22 40.88825 -73.73302 34963 ft 481 kts 53°
2026-05-05 15:22 40.92719 -73.66088 34933 ft 482 kts 54°
2026-05-05 15:23 40.96577 -73.58821 34932 ft 482 kts 54°
2026-05-05 15:23 41.00422 -73.51554 34935 ft 482 kts 54°
2026-05-05 15:24 41.04266 -73.44270 34933 ft 483 kts 54°
2026-05-05 15:24 41.08108 -73.36974 34943 ft 483 kts 54°
2026-05-05 15:25 41.11949 -73.29661 34949 ft 483 kts 54°
2026-05-05 15:25 41.15781 -73.22346 34952 ft 483 kts 55°
2026-05-05 15:26 41.19607 -73.15028 34954 ft 483 kts 55°
2026-05-05 15:26 41.23435 -73.07689 34959 ft 483 kts 55°
2026-05-05 15:27 41.27264 -73.00331 34963 ft 484 kts 55°
2026-05-05 15:27 41.30777 -72.92806 34984 ft 483 kts 59°
2026-05-05 15:28 41.34205 -72.85128 34958 ft 482 kts 59°
2026-05-05 15:28 41.37649 -72.77460 34959 ft 483 kts 59°
2026-05-05 15:29 41.41090 -72.69784 34956 ft 483 kts 59°
2026-05-05 15:29 41.44526 -72.62097 34960 ft 483 kts 59°
2026-05-05 15:30 41.47957 -72.54406 34956 ft 482 kts 59°
2026-05-05 15:30 41.51375 -72.46721 34924 ft 482 kts 59°
2026-05-05 15:31 41.54790 -72.39025 34928 ft 482 kts 59°
2026-05-05 15:31 41.58202 -72.31316 34930 ft 482 kts 59°
2026-05-05 15:32 41.61608 -72.23602 34929 ft 482 kts 59°
2026-05-05 15:32 41.65000 -72.15897 34934 ft 481 kts 59°
2026-05-05 15:33 41.68385 -72.08189 34936 ft 481 kts 59°
2026-05-05 15:33 41.71768 -72.00466 34933 ft 481 kts 59°
2026-05-05 15:34 41.75127 -71.92779 34930 ft 481 kts 59°
2026-05-05 15:34 41.78500 -71.85046 34944 ft 480 kts 59°
2026-05-05 15:35 41.82701 -71.78245 34934 ft 474 kts 36°
2026-05-05 15:35 41.87891 -71.72711 34918 ft 477 kts 37°
2026-05-05 15:36 41.93124 -71.67237 34933 ft 477 kts 36°
2026-05-05 15:36 41.98378 -71.61772 34933 ft 478 kts 36°
2026-05-05 15:37 42.03632 -71.56302 34936 ft 478 kts 37°
2026-05-05 15:37 42.08885 -71.50821 34925 ft 477 kts 36°
2026-05-05 15:38 42.14130 -71.45335 34928 ft 477 kts 37°
2026-05-05 15:38 42.19378 -71.39836 34910 ft 478 kts 37°
2026-05-05 15:39 42.24618 -71.34331 34898 ft 478 kts 37°
2026-05-05 15:39 42.29866 -71.28808 34909 ft 479 kts 37°
2026-05-05 15:40 42.35123 -71.23264 34917 ft 480 kts 37°
2026-05-05 15:40 42.40389 -71.17696 34907 ft 480 kts 37°
2026-05-05 15:41 42.45650 -71.12123 34915 ft 480 kts 37°
2026-05-05 15:41 42.50925 -71.06523 34904 ft 482 kts 37°
2026-05-05 15:42 42.56199 -71.00910 34910 ft 482 kts 37°
2026-05-05 15:42 42.61476 -70.95283 34911 ft 482 kts 37°
2026-05-05 15:43 42.66759 -70.89639 34905 ft 484 kts 37°
2026-05-05 15:43 42.71939 -70.83880 34902 ft 483 kts 38°
2026-05-05 15:44 42.77164 -70.78044 34884 ft 483 kts 38°
2026-05-05 15:44 42.82329 -70.72268 34886 ft 485 kts 38°
2026-05-05 15:45 42.87538 -70.66429 34867 ft 485 kts 38°
2026-05-05 15:45 42.92746 -70.60579 34863 ft 485 kts 38°
2026-05-05 15:46 42.97953 -70.54717 34859 ft 486 kts 37°
2026-05-05 15:46 43.03159 -70.48841 34851 ft 484 kts 38°
2026-05-05 15:47 43.08346 -70.42975 34863 ft 484 kts 38°
2026-05-05 15:47 43.13534 -70.37094 34863 ft 484 kts 38°
2026-05-05 15:48 43.18723 -70.31199 34865 ft 484 kts 38°
2026-05-05 15:48 43.23904 -70.25299 34874 ft 484 kts 38°
2026-05-05 15:49 43.29087 -70.19384 34868 ft 484 kts 37°
2026-05-05 15:49 43.34262 -70.13463 34859 ft 484 kts 38°
2026-05-05 15:50 43.39427 -70.07541 34869 ft 483 kts 38°
2026-05-05 15:50 43.44587 -70.01611 34876 ft 484 kts 38°
2026-05-05 15:51 43.49751 -69.95662 34870 ft 483 kts 38°
2026-05-05 15:51 43.54904 -69.89712 34873 ft 484 kts 38°
2026-05-05 15:52 43.60063 -69.83744 34885 ft 483 kts 37°
2026-05-05 15:52 43.65200 -69.77783 34880 ft 483 kts 37°
2026-05-05 15:53 43.69473 -69.72817 34881 ft 483 kts 38°
2026-05-05 15:53 43.75446 -69.65860 34882 ft 483 kts 37°
2026-05-05 15:54 43.80575 -69.59867 34879 ft 482 kts 37°
2026-05-05 15:54 43.84868 -69.54842 34881 ft 483 kts 37°
2026-05-05 15:55 43.89996 -69.48827 34888 ft 483 kts 38°
2026-05-05 15:55 43.95117 -69.42807 34875 ft 481 kts 37°
2026-05-05 15:56 44.00208 -69.36807 34885 ft 481 kts 37°
2026-05-05 15:56 44.05301 -69.30790 34884 ft 481 kts 37°
2026-05-05 15:57 44.10371 -69.24787 34888 ft 481 kts 37°
2026-05-05 15:57 44.15467 -69.18739 34887 ft 482 kts 37°
2026-05-05 15:58 44.20596 -69.12638 34890 ft 482 kts 37°
2026-05-05 15:58 44.25687 -69.06568 34881 ft 481 kts 37°
2026-05-05 15:59 44.30757 -69.00507 34859 ft 479 kts 37°
2026-05-05 15:59 44.35811 -68.94452 34858 ft 479 kts 37°
2026-05-05 16:00 44.40860 -68.88390 34860 ft 479 kts 37°
2026-05-05 16:00 44.45874 -68.82353 34867 ft 478 kts 37°
2026-05-05 16:01 44.50918 -68.76267 34856 ft 478 kts 37°
2026-05-05 16:01 44.55953 -68.70178 34864 ft 478 kts 37°
2026-05-05 16:02 44.60992 -68.64069 34841 ft 479 kts 37°
2026-05-05 16:02 44.66060 -68.57910 34838 ft 479 kts 37°
2026-05-05 16:03 44.71059 -68.51820 34839 ft 479 kts 37°
2026-05-05 16:03 44.76119 -68.45643 34843 ft 479 kts 37°
2026-05-05 16:04 44.81107 -68.39537 34852 ft 479 kts 37°
2026-05-05 16:04 44.86129 -68.33377 34864 ft 478 kts 37°
2026-05-05 16:05 44.91149 -68.27203 34859 ft 479 kts 37°
2026-05-05 16:05 44.96166 -68.21017 34838 ft 479 kts 37°
2026-05-05 16:06 45.01182 -68.14818 34850 ft 479 kts 37°
2026-05-05 16:06 45.06195 -68.08610 34847 ft 479 kts 37°
2026-05-05 16:07 45.11213 -68.02379 34845 ft 479 kts 37°
2026-05-05 16:07 45.16222 -67.96147 34834 ft 479 kts 37°
2026-05-05 16:08 45.21224 -67.89910 34858 ft 479 kts 37°
2026-05-05 16:08 45.26215 -67.83671 34835 ft 478 kts 37°
2026-05-05 16:09 45.31200 -67.77424 34834 ft 478 kts 37°
2026-05-05 16:09 45.36196 -67.71187 34830 ft 478 kts 36°
2026-05-05 16:10 45.41204 -67.64961 34827 ft 479 kts 36°
2026-05-05 16:10 45.46222 -67.58707 34821 ft 479 kts 36°
2026-05-05 16:11 45.51232 -67.52448 34815 ft 479 kts 36°
2026-05-05 16:12 45.61249 -67.39888 34810 ft 479 kts 36°
2026-05-05 16:13 45.73752 -67.24124 34809 ft 480 kts 36°
2026-05-05 16:13 45.78753 -67.17791 34805 ft 480 kts 36°
2026-05-05 16:14 45.88745 -67.05091 34812 ft 480 kts 36°
2026-05-05 16:15 45.98730 -66.92334 34799 ft 480 kts 36°
2026-05-05 16:16 46.08674 -66.79567 34787 ft 480 kts 36°
2026-05-05 16:17 46.16147 -66.69929 34788 ft 481 kts 36°
2026-05-05 16:18 46.23603 -66.60278 34790 ft 479 kts 36°
2026-05-05 16:19 46.31011 -66.50650 34781 ft 477 kts 36°
2026-05-05 16:19 46.38414 -66.40995 34770 ft 477 kts 36°
2026-05-05 16:20 46.48257 -66.28099 34778 ft 477 kts 36°
2026-05-05 16:22 46.60512 -66.11950 34773 ft 472 kts 36°
2026-05-05 16:23 46.70236 -65.99062 34757 ft 473 kts 36°
2026-05-05 16:23 46.77520 -65.89366 34764 ft 473 kts 36°
2026-05-05 16:24 46.82374 -65.82884 34773 ft 473 kts 36°
2026-05-05 16:25 46.89641 -65.73147 34784 ft 472 kts 36°
2026-05-05 16:25 46.96891 -65.63397 34765 ft 472 kts 36°
2026-05-05 16:26 47.06514 -65.50397 34776 ft 472 kts 36°
2026-05-05 16:27 47.11340 -65.43852 34758 ft 472 kts 36°
2026-05-05 16:27 47.16162 -65.37295 34755 ft 472 kts 36°
2026-05-05 16:28 47.20978 -65.30730 34751 ft 472 kts 36°
2026-05-05 16:28 47.25775 -65.24173 34769 ft 468 kts 36°
2026-05-05 16:29 47.30537 -65.17647 34758 ft 468 kts 36°
2026-05-05 16:29 47.35305 -65.11097 34757 ft 468 kts 36°
2026-05-05 16:30 47.40053 -65.04557 34749 ft 466 kts 36°
2026-05-05 16:30 47.44794 -64.98010 34746 ft 467 kts 36°
2026-05-05 16:31 47.49539 -64.91440 34747 ft 468 kts 36°
2026-05-05 16:31 47.54290 -64.84845 34744 ft 468 kts 36°
2026-05-05 16:32 47.59031 -64.78247 34775 ft 468 kts 36°
2026-05-05 16:32 47.63768 -64.71636 34756 ft 468 kts 36°
2026-05-05 16:33 47.68508 -64.65004 34752 ft 468 kts 36°
2026-05-05 16:33 47.73243 -64.58363 34749 ft 468 kts 36°
2026-05-05 16:34 47.77973 -64.51711 34756 ft 468 kts 36°
2026-05-05 16:34 47.82667 -64.45090 34754 ft 468 kts 36°
2026-05-05 16:35 47.87391 -64.38411 34753 ft 468 kts 36°
2026-05-05 16:35 47.92099 -64.31738 34748 ft 466 kts 36°
2026-05-05 16:36 47.96797 -64.25061 34759 ft 468 kts 36°
2026-05-05 16:36 48.01504 -64.18352 34756 ft 468 kts 36°
2026-05-05 16:37 48.06211 -64.11627 34760 ft 468 kts 36°
2026-05-05 16:37 48.10914 -64.04887 34760 ft 468 kts 36°
2026-05-05 16:38 48.15611 -63.98140 34763 ft 468 kts 36°
2026-05-05 16:38 48.20310 -63.91372 34763 ft 468 kts 36°
2026-05-05 16:39 48.24994 -63.84608 34751 ft 466 kts 36°
2026-05-05 16:39 48.28863 -63.79006 34720 ft 464 kts 36°
2026-05-05 16:40 48.33524 -63.72240 34768 ft 467 kts 36°
2026-05-05 16:40 48.38193 -63.65447 34761 ft 467 kts 36°
2026-05-05 16:41 48.42862 -63.58633 34761 ft 467 kts 36°
2026-05-05 16:41 48.47524 -63.51811 34784 ft 467 kts 36°
2026-05-05 16:42 48.52179 -63.44983 34767 ft 467 kts 36°
2026-05-05 16:42 48.56820 -63.38155 34763 ft 465 kts 37°
2026-05-05 16:43 48.61450 -63.31326 34766 ft 465 kts 37°
2026-05-05 16:43 48.66075 -63.24486 34773 ft 465 kts 37°
2026-05-05 16:44 48.70687 -63.17646 34767 ft 464 kts 37°
2026-05-05 16:44 48.75299 -63.10788 34768 ft 465 kts 37°
2026-05-05 16:45 48.79911 -63.03910 34771 ft 465 kts 37°
2026-05-05 16:45 48.84508 -62.97037 34771 ft 462 kts 37°
2026-05-05 16:46 48.89082 -62.90179 34783 ft 462 kts 37°
2026-05-05 16:46 48.93653 -62.83307 34782 ft 463 kts 37°
2026-05-05 16:47 48.98228 -62.76411 34785 ft 463 kts 37°
2026-05-05 16:47 49.02799 -62.69501 34786 ft 463 kts 37°
2026-05-05 16:48 49.07356 -62.62595 34783 ft 463 kts 37°
2026-05-05 16:48 49.11912 -62.55669 34782 ft 461 kts 37°
2026-05-05 16:49 49.16455 -62.48746 34783 ft 461 kts 37°
2026-05-05 16:49 49.20992 -62.41813 34777 ft 461 kts 37°
2026-05-05 16:50 49.25521 -62.34872 34776 ft 461 kts 37°
2026-05-05 16:50 49.30044 -62.27921 34786 ft 461 kts 37°
2026-05-05 16:51 49.34553 -62.20973 34814 ft 458 kts 37°
2026-05-05 16:51 49.39027 -62.14060 34760 ft 455 kts 37°
2026-05-05 16:52 49.43483 -62.07156 34764 ft 456 kts 37°
2026-05-05 16:52 49.47943 -62.00227 34754 ft 456 kts 37°
2026-05-05 16:53 49.52397 -61.93287 34781 ft 456 kts 38°
2026-05-05 16:53 49.56840 -61.86345 34753 ft 455 kts 38°
2026-05-05 16:54 49.61252 -61.79435 34751 ft 455 kts 38°
2026-05-05 16:54 49.65675 -61.72486 34742 ft 453 kts 38°
2026-05-05 16:55 49.70119 -61.65487 34778 ft 453 kts 38°
2026-05-05 16:55 49.74503 -61.58562 34748 ft 453 kts 38°
2026-05-05 16:56 49.78908 -61.51584 34746 ft 454 kts 38°
2026-05-05 16:56 49.83315 -61.44584 34747 ft 454 kts 38°
2026-05-05 16:57 49.87714 -61.37578 34744 ft 454 kts 38°
2026-05-05 16:57 49.92102 -61.30569 34740 ft 452 kts 38°
2026-05-05 16:58 49.96484 -61.23551 34747 ft 452 kts 39°
2026-05-05 16:58 50.00856 -61.16530 34747 ft 452 kts 39°
2026-05-05 16:59 50.05218 -61.09503 34780 ft 452 kts 39°
2026-05-05 16:59 50.09603 -61.02421 34738 ft 455 kts 39°
2026-05-05 17:00 50.13985 -60.95325 34742 ft 453 kts 39°
2026-05-05 17:00 50.18351 -60.88234 34747 ft 454 kts 39°
2026-05-05 17:01 50.22718 -60.81120 34745 ft 454 kts 39°
2026-05-05 17:01 50.27091 -60.73977 34734 ft 456 kts 39°
2026-05-05 17:02 50.31468 -60.66808 34727 ft 455 kts 39°
2026-05-05 17:02 50.35830 -60.59642 34722 ft 455 kts 39°
2026-05-05 17:03 50.40191 -60.52457 34721 ft 455 kts 39°
2026-05-05 17:03 50.44544 -60.45266 34711 ft 454 kts 39°
2026-05-05 17:04 50.48889 -60.38065 34704 ft 454 kts 39°
2026-05-05 17:04 50.53229 -60.30855 34700 ft 454 kts 39°
2026-05-05 17:05 50.57562 -60.23634 34693 ft 453 kts 39°
2026-05-05 17:05 50.61889 -60.16403 34694 ft 455 kts 39°
2026-05-05 17:06 50.66232 -60.09123 34681 ft 456 kts 39°
2026-05-05 17:06 50.70562 -60.01847 34661 ft 455 kts 39°
2026-05-05 17:07 50.74887 -59.94555 34666 ft 454 kts 40°
2026-05-05 17:07 50.79196 -59.87270 34667 ft 453 kts 40°
2026-05-05 17:08 50.83455 -59.80049 34657 ft 452 kts 40°
2026-05-05 17:08 50.87737 -59.72767 34637 ft 451 kts 40°
2026-05-05 17:09 50.92005 -59.65489 34632 ft 451 kts 40°
2026-05-05 17:09 50.96265 -59.58203 34649 ft 450 kts 41°
2026-05-05 17:10 51.00504 -59.50933 34637 ft 448 kts 41°
2026-05-05 17:10 51.04726 -59.43671 34640 ft 447 kts 41°
2026-05-05 17:11 51.08939 -59.36401 34630 ft 447 kts 41°
2026-05-05 17:11 51.13149 -59.29120 34665 ft 447 kts 42°
2026-05-05 17:12 51.17336 -59.21852 34620 ft 444 kts 42°
2026-05-05 17:12 51.21505 -59.14597 34625 ft 444 kts 42°
2026-05-05 17:13 51.25675 -59.07320 34631 ft 443 kts 42°
2026-05-05 17:13 51.29825 -59.00056 34634 ft 443 kts 42°
2026-05-05 17:14 51.33971 -58.92778 34637 ft 443 kts 43°
2026-05-05 17:14 51.38107 -58.85497 34629 ft 441 kts 43°
2026-05-05 17:15 51.42221 -58.78234 34629 ft 441 kts 43°
2026-05-05 17:15 51.46342 -58.70936 34633 ft 441 kts 43°
2026-05-05 17:16 51.50454 -58.63634 34649 ft 442 kts 43°
2026-05-05 17:16 51.54572 -58.56301 34635 ft 442 kts 43°
2026-05-05 17:17 51.58680 -58.48962 34626 ft 441 kts 43°
2026-05-05 17:17 51.62769 -58.41637 34623 ft 440 kts 43°
2026-05-05 17:18 51.66821 -58.34357 34621 ft 438 kts 43°
2026-05-05 17:18 51.70880 -58.27043 34615 ft 437 kts 43°
2026-05-05 17:19 51.74928 -58.19729 34612 ft 437 kts 44°
2026-05-05 17:19 51.78967 -58.12409 34609 ft 435 kts 44°
2026-05-05 17:20 51.82990 -58.05095 34619 ft 436 kts 44°
2026-05-05 17:20 51.87003 -57.97779 34620 ft 433 kts 44°
2026-05-05 17:21 51.90999 -57.90474 34613 ft 433 kts 44°
2026-05-05 17:22 51.96962 -57.79532 34612 ft 432 kts 44°
2026-05-05 17:22 52.00922 -57.72239 34594 ft 429 kts 44°
2026-05-05 17:23 52.04850 -57.64983 34597 ft 427 kts 45°
2026-05-05 17:23 52.08764 -57.57740 34587 ft 426 kts 45°
2026-05-05 17:24 52.12657 -57.50513 34577 ft 424 kts 45°
2026-05-05 17:24 52.16536 -57.43294 34581 ft 423 kts 45°
2026-05-05 17:25 52.19744 -57.37307 34583 ft 421 kts 45°
2026-05-05 17:25 52.23576 -57.30138 34578 ft 418 kts 45°
2026-05-05 17:26 52.27373 -57.23016 34562 ft 415 kts 45°
2026-05-05 17:26 52.31151 -57.15907 34562 ft 414 kts 45°
2026-05-05 17:27 52.34920 -57.08798 34555 ft 411 kts 45°
2026-05-05 17:27 52.38647 -57.01747 34571 ft 409 kts 46°
2026-05-05 17:28 52.42349 -56.94725 34542 ft 407 kts 46°
2026-05-05 17:28 52.46043 -56.87700 34548 ft 407 kts 46°
2026-05-05 17:29 52.49742 -56.80646 34522 ft 408 kts 46°
2026-05-05 17:29 52.53437 -56.73580 34540 ft 410 kts 46°
2026-05-05 17:30 52.57143 -56.66473 34541 ft 409 kts 46°
2026-05-05 17:30 52.60831 -56.59382 34521 ft 407 kts 46°
2026-05-05 17:31 52.64512 -56.52284 34524 ft 408 kts 46°
2026-05-05 17:31 52.68186 -56.45181 34515 ft 407 kts 46°
2026-05-05 17:32 52.71856 -56.38065 34503 ft 407 kts 46°
2026-05-05 17:32 52.75700 -56.31155 34513 ft 412 kts 43°
2026-05-05 17:33 52.79701 -56.24274 34500 ft 419 kts 43°
2026-05-05 17:33 52.83776 -56.17259 34494 ft 427 kts 43°
2026-05-05 17:34 52.87919 -56.10108 34500 ft 435 kts 44°
2026-05-05 17:34 52.92113 -56.02847 34505 ft 443 kts 44°
2026-05-05 17:35 52.96412 -55.95381 34507 ft 451 kts 44°
2026-05-05 17:35 53.00787 -55.87761 34504 ft 460 kts 44°
2026-05-05 17:36 53.05237 -55.79984 34499 ft 468 kts 44°
2026-05-05 17:36 53.09763 -55.72049 34504 ft 477 kts 44°
2026-05-05 17:37 53.14336 -55.64004 34513 ft 479 kts 45°
2026-05-05 17:37 53.18908 -55.55937 34515 ft 479 kts 45°
2026-05-05 17:38 53.23477 -55.47846 34519 ft 479 kts 45°
2026-05-05 17:38 53.28037 -55.39745 34520 ft 478 kts 45°
2026-05-05 17:39 53.32586 -55.31635 34535 ft 478 kts 45°
2026-05-05 17:39 53.37132 -55.23504 34532 ft 478 kts 45°
2026-05-05 17:40 53.41673 -55.15357 34537 ft 478 kts 46°
2026-05-05 17:40 53.46199 -55.07207 34537 ft 478 kts 46°
2026-05-05 17:41 53.50725 -54.99030 34534 ft 478 kts 46°
2026-05-05 17:41 53.55222 -54.90880 34536 ft 478 kts 46°
2026-05-05 17:42 53.59761 -54.82624 34538 ft 478 kts 46°
2026-05-05 17:42 53.64275 -54.74386 34536 ft 478 kts 46°
2026-05-05 17:43 53.68745 -54.66199 34540 ft 478 kts 46°
2026-05-05 17:43 53.73240 -54.57941 34536 ft 477 kts 46°
2026-05-05 17:44 53.77729 -54.49664 34537 ft 478 kts 46°
2026-05-05 17:44 53.82211 -54.41373 34536 ft 477 kts 47°
2026-05-05 17:45 53.86685 -54.33068 34542 ft 477 kts 47°
2026-05-05 17:45 53.91149 -54.24753 34540 ft 476 kts 47°
2026-05-05 17:46 53.95601 -54.16432 34535 ft 476 kts 47°
2026-05-05 17:46 54.00053 -54.08082 34535 ft 477 kts 47°
2026-05-05 17:47 54.04499 -53.99716 34539 ft 476 kts 47°
2026-05-05 17:47 54.08928 -53.91352 34539 ft 475 kts 48°
2026-05-05 17:48 54.13348 -53.82976 34539 ft 475 kts 48°
2026-05-05 17:48 54.17769 -53.74570 34547 ft 476 kts 48°
2026-05-05 17:49 54.22189 -53.66135 34547 ft 476 kts 48°
2026-05-05 17:49 54.26597 -53.57695 34544 ft 476 kts 48°
2026-05-05 17:50 54.30971 -53.49291 34548 ft 476 kts 49°
2026-05-05 17:50 54.35362 -53.40826 34548 ft 476 kts 49°
2026-05-05 17:51 54.39754 -53.32328 34546 ft 476 kts 49°
2026-05-05 17:51 54.44139 -53.23813 34554 ft 476 kts 49°
2026-05-05 17:52 54.48517 -53.15285 34554 ft 476 kts 49°
2026-05-05 17:52 54.52894 -53.06726 34556 ft 476 kts 49°
2026-05-05 17:53 54.57262 -52.98155 34559 ft 476 kts 49°
2026-05-05 17:53 54.61627 -52.89560 34558 ft 476 kts 49°
2026-05-05 17:54 54.65977 -52.80963 34559 ft 475 kts 50°
2026-05-05 17:54 54.70324 -52.72342 34560 ft 476 kts 50°
2026-05-05 17:55 54.74664 -52.63707 34570 ft 476 kts 50°
2026-05-05 17:55 54.78998 -52.55048 34569 ft 476 kts 50°
2026-05-05 17:56 54.83318 -52.46392 34568 ft 474 kts 50°
2026-05-05 17:56 54.87589 -52.37798 34579 ft 474 kts 50°
2026-05-05 17:57 54.91888 -52.29120 34576 ft 474 kts 50°
2026-05-05 17:57 54.96182 -52.20421 34587 ft 473 kts 51°
2026-05-05 17:58 55.00463 -52.11719 34587 ft 472 kts 51°
2026-05-05 17:58 55.04718 -52.03037 34593 ft 471 kts 51°
2026-05-05 17:59 55.08964 -51.94338 34593 ft 471 kts 51°
2026-05-05 17:59 55.13205 -51.85625 34604 ft 471 kts 51°
2026-05-05 18:00 55.17441 -51.76887 34599 ft 470 kts 52°
2026-05-05 18:00 55.21656 -51.68162 34604 ft 468 kts 52°
2026-05-05 18:01 55.25852 -51.59446 34618 ft 468 kts 52°
2026-05-05 18:01 55.30047 -51.50698 34613 ft 468 kts 52°
2026-05-05 18:02 55.34231 -51.41943 34621 ft 468 kts 52°
2026-05-05 18:02 55.38406 -51.33175 34619 ft 468 kts 52°
2026-05-05 18:03 55.42579 -51.24382 34632 ft 468 kts 52°
2026-05-05 18:03 55.46744 -51.15572 34631 ft 468 kts 53°
2026-05-05 18:04 55.50902 -51.06742 34630 ft 468 kts 52°
2026-05-05 18:04 55.55052 -50.97900 34634 ft 467 kts 53°
2026-05-05 18:05 55.59184 -50.89063 34643 ft 465 kts 53°
2026-05-05 18:05 55.63301 -50.80227 34649 ft 465 kts 53°
2026-05-05 18:06 55.67411 -50.71374 34650 ft 465 kts 53°
2026-05-05 18:06 55.71517 -50.62500 34660 ft 466 kts 53°
2026-05-05 18:07 55.75613 -50.53622 34656 ft 463 kts 54°
2026-05-05 18:07 55.79680 -50.44773 34667 ft 462 kts 54°
2026-05-05 18:08 55.83744 -50.35902 34681 ft 462 kts 54°
2026-05-05 18:08 55.87777 -50.27067 34681 ft 463 kts 54°
2026-05-05 18:09 55.91824 -50.18168 34672 ft 462 kts 54°
2026-05-05 18:09 55.95862 -50.09259 34681 ft 461 kts 54°
2026-05-05 18:10 55.99875 -50.00317 34696 ft 461 kts 56°
2026-05-05 18:10 56.03730 -49.91167 34698 ft 461 kts 56°
2026-05-05 18:11 56.07615 -49.82026 34708 ft 461 kts 56°
2026-05-05 18:11 56.11483 -49.72900 34707 ft 459 kts 56°
2026-05-05 18:12 56.15334 -49.63785 34722 ft 458 kts 56°
2026-05-05 18:12 56.19176 -49.54656 34721 ft 458 kts 56°
2026-05-05 18:13 56.23009 -49.45514 34736 ft 458 kts 57°
2026-05-05 18:13 56.26192 -49.37895 34737 ft 458 kts 57°
2026-05-05 18:14 56.30004 -49.28741 34737 ft 456 kts 57°
2026-05-05 18:14 56.33792 -49.19611 34741 ft 455 kts 57°
2026-05-05 18:15 56.37575 -49.10456 34754 ft 455 kts 57°
2026-05-05 18:15 56.41349 -49.01289 34769 ft 455 kts 57°
2026-05-05 18:16 56.45115 -48.92108 34738 ft 455 kts 58°
2026-05-05 18:16 56.48860 -48.82944 34772 ft 451 kts 58°
2026-05-05 18:17 56.52579 -48.73808 34777 ft 451 kts 58°
2026-05-05 18:17 56.56294 -48.64648 34791 ft 451 kts 58°
2026-05-05 18:18 56.60005 -48.55462 34797 ft 451 kts 58°
2026-05-05 18:18 56.63706 -48.46265 34781 ft 450 kts 59°
2026-05-05 18:19 56.67384 -48.37094 34805 ft 448 kts 59°
2026-05-05 18:19 56.71048 -48.27921 34822 ft 448 kts 59°
2026-05-05 18:20 56.74710 -48.18721 34825 ft 448 kts 59°
2026-05-05 18:20 56.78341 -48.09560 34830 ft 448 kts 59°
2026-05-05 18:21 56.81981 -48.00343 34830 ft 447 kts 59°
2026-05-05 18:21 56.85596 -47.91155 34843 ft 445 kts 60°
2026-05-05 18:22 56.89204 -47.81951 34845 ft 445 kts 60°
2026-05-05 18:22 56.92803 -47.72734 34859 ft 445 kts 60°
2026-05-05 18:23 56.96411 -47.63458 34858 ft 445 kts 60°
2026-05-05 18:23 56.99970 -47.54272 34865 ft 442 kts 60°
2026-05-05 18:24 57.03521 -47.45074 34868 ft 441 kts 61°
2026-05-05 18:24 57.07062 -47.35864 34883 ft 441 kts 61°
2026-05-05 18:25 57.10594 -47.26644 34884 ft 441 kts 61°
2026-05-05 18:25 57.14120 -47.17405 34898 ft 441 kts 61°
2026-05-05 18:26 57.17640 -47.08144 34894 ft 441 kts 61°
2026-05-05 18:26 57.21149 -46.98878 34909 ft 441 kts 61°
2026-05-05 18:27 57.24657 -46.89579 34905 ft 441 kts 61°
2026-05-05 18:27 57.28153 -46.80277 34906 ft 441 kts 61°
2026-05-05 18:28 57.33381 -46.66297 34892 ft 439 kts 62°
2026-05-05 18:28 57.36841 -46.57001 34920 ft 438 kts 62°
2026-05-05 18:29 57.40288 -46.47703 34934 ft 438 kts 62°
2026-05-05 18:29 57.43732 -46.38377 34933 ft 438 kts 62°
2026-05-05 18:30 57.47165 -46.29044 34950 ft 438 kts 62°
2026-05-05 18:30 57.50594 -46.19689 34916 ft 436 kts 63°
2026-05-05 18:31 57.53960 -46.10466 34953 ft 428 kts 63°
2026-05-05 18:31 57.57294 -46.01298 34963 ft 428 kts 63°
2026-05-05 18:32 57.60623 -45.92107 34974 ft 428 kts 63°
2026-05-05 18:32 57.63945 -45.82900 34976 ft 428 kts 63°
2026-05-05 18:33 57.67259 -45.73681 34942 ft 427 kts 64°
2026-05-05 18:33 57.70528 -45.64553 34978 ft 419 kts 64°
2026-05-05 18:34 57.73756 -45.55503 34982 ft 419 kts 64°
2026-05-05 18:34 57.76983 -45.46421 34990 ft 419 kts 64°
2026-05-05 18:35 57.80203 -45.37329 34990 ft 419 kts 64°
2026-05-05 18:35 57.83412 -45.28228 35002 ft 418 kts 64°
2026-05-05 18:36 57.86610 -45.19128 34997 ft 417 kts 64°
2026-05-05 18:36 57.89798 -45.10019 35011 ft 417 kts 64°
2026-05-05 18:37 57.92956 -45.00962 35014 ft 417 kts 64°
2026-05-05 18:37 57.96126 -44.91835 35026 ft 417 kts 64°
2026-05-05 18:38 57.99289 -44.82694 35024 ft 417 kts 65°
2026-05-05 18:38 58.02446 -44.73538 35000 ft 417 kts 64°
2026-05-05 18:39 58.05613 -44.64310 35038 ft 419 kts 64°
2026-05-05 18:39 58.08777 -44.55059 35047 ft 419 kts 64°
2026-05-05 18:40 58.11930 -44.45808 35048 ft 419 kts 64°
2026-05-05 18:40 58.15077 -44.36534 35058 ft 418 kts 64°
2026-05-05 18:41 58.18215 -44.27251 35010 ft 418 kts 64°
2026-05-05 18:41 58.21353 -44.17930 35083 ft 420 kts 64°
2026-05-05 18:42 58.24493 -44.08568 35067 ft 420 kts 64°
2026-05-05 18:42 58.27622 -43.99203 35071 ft 420 kts 64°
2026-05-05 18:43 58.30742 -43.89828 35085 ft 420 kts 64°
2026-05-05 18:43 58.33855 -43.80434 35087 ft 420 kts 64°
2026-05-05 18:44 58.36965 -43.71016 35104 ft 420 kts 63°
2026-05-05 18:44 58.40071 -43.61570 35089 ft 421 kts 63°
2026-05-05 18:45 58.43171 -43.52104 35107 ft 421 kts 63°
2026-05-05 18:45 58.46262 -43.42628 35101 ft 420 kts 64°
2026-05-05 18:46 58.49346 -43.33135 35119 ft 420 kts 64°
2026-05-05 18:46 58.52398 -43.23705 35111 ft 420 kts 63°
2026-05-05 18:47 58.55475 -43.14155 35129 ft 421 kts 63°
2026-05-05 18:47 58.58541 -43.04601 35135 ft 421 kts 63°
2026-05-05 18:48 58.61600 -42.95032 35153 ft 421 kts 63°
2026-05-05 18:48 58.64653 -42.85444 35151 ft 421 kts 63°
2026-05-05 18:49 58.67702 -42.75826 35127 ft 422 kts 63°
2026-05-05 18:49 58.70757 -42.66153 35157 ft 424 kts 63°
2026-05-05 18:50 58.73811 -42.56439 35174 ft 424 kts 63°
2026-05-05 18:50 58.76857 -42.46713 35174 ft 424 kts 63°
2026-05-05 18:51 58.79895 -42.36972 35175 ft 424 kts 63°
2026-05-05 18:51 58.82923 -42.27221 35188 ft 424 kts 63°
2026-05-05 18:52 58.85942 -42.17459 35191 ft 424 kts 63°
2026-05-05 18:52 58.88956 -42.07671 35204 ft 424 kts 63°
2026-05-05 18:53 58.91962 -41.97872 35196 ft 424 kts 63°
2026-05-05 18:53 58.94962 -41.88048 35194 ft 423 kts 63°
2026-05-05 18:54 58.97930 -41.78288 35195 ft 423 kts 63°
2026-05-05 18:54 59.00913 -41.68439 35187 ft 424 kts 63°
2026-05-05 18:55 59.03894 -41.58552 35202 ft 424 kts 63°
2026-05-05 18:55 59.06865 -41.48656 35216 ft 424 kts 63°
2026-05-05 18:56 59.09826 -41.38753 35211 ft 424 kts 63°
2026-05-05 18:56 59.12786 -41.28810 35226 ft 424 kts 63°
2026-05-05 18:57 59.15734 -41.18866 35200 ft 424 kts 63°
2026-05-05 18:57 59.18673 -41.08909 35230 ft 424 kts 63°
2026-05-05 18:58 59.21606 -40.98940 35235 ft 424 kts 63°
2026-05-05 18:58 59.24534 -40.88951 35236 ft 424 kts 63°
2026-05-05 18:59 59.27453 -40.78949 35243 ft 424 kts 63°
2026-05-05 18:59 59.30365 -40.68930 35244 ft 424 kts 63°
2026-05-05 19:00 59.32781 -40.60587 35244 ft 423 kts 63°
2026-05-05 19:00 59.35677 -40.50546 35255 ft 423 kts 63°
2026-05-05 19:01 59.38566 -40.40488 35260 ft 423 kts 63°
2026-05-05 19:01 59.41450 -40.30409 35259 ft 424 kts 63°
2026-05-05 19:02 59.44322 -40.20325 35265 ft 423 kts 63°
2026-05-05 19:02 59.47193 -40.10204 35243 ft 423 kts 63°
2026-05-05 19:03 59.50083 -40.00165 35261 ft 422 kts 57°
2026-05-05 19:03 59.53811 -39.91215 35266 ft 423 kts 52°
2026-05-05 19:04 59.57600 -39.82319 35271 ft 424 kts 52°
2026-05-05 19:04 59.61396 -39.73429 35271 ft 423 kts 52°
2026-05-05 19:05 59.65182 -39.64531 35274 ft 423 kts 52°
2026-05-05 19:05 59.68968 -39.55598 35283 ft 423 kts 52°
2026-05-05 19:06 59.72731 -39.46687 35289 ft 421 kts 52°
2026-05-05 19:06 59.76490 -39.37753 35290 ft 422 kts 52°
2026-05-05 19:07 59.80239 -39.28804 35288 ft 422 kts 52°
2026-05-05 19:07 59.83979 -39.19843 35292 ft 422 kts 52°
2026-05-05 19:08 59.87724 -39.10840 35293 ft 423 kts 51°
2026-05-05 19:08 59.91474 -39.01784 35300 ft 424 kts 51°
2026-05-05 19:09 59.95220 -38.92703 35287 ft 424 kts 51°
2026-05-05 19:09 59.98938 -38.83655 35301 ft 424 kts 51°
2026-05-05 19:10 60.02670 -38.74536 35304 ft 424 kts 51°
2026-05-05 19:10 60.06398 -38.65392 35305 ft 424 kts 50°
2026-05-05 19:11 60.10143 -38.56173 35298 ft 428 kts 50°
2026-05-05 19:11 60.13898 -38.46888 35302 ft 428 kts 50°
2026-05-05 19:12 60.17647 -38.37583 35308 ft 428 kts 50°
2026-05-05 19:12 60.21384 -38.28272 35319 ft 428 kts 50°
2026-05-05 19:13 60.25118 -38.18926 35307 ft 428 kts 50°
2026-05-05 19:13 60.28856 -38.09536 35312 ft 431 kts 49°
2026-05-05 19:14 60.32600 -38.00090 35311 ft 431 kts 49°
2026-05-05 19:14 60.36338 -37.90621 35313 ft 431 kts 49°
2026-05-05 19:15 60.40069 -37.81133 35313 ft 431 kts 49°
2026-05-05 19:15 60.43793 -37.71619 35312 ft 431 kts 49°
2026-05-05 19:16 60.47514 -37.62078 35315 ft 433 kts 48°
2026-05-05 19:16 60.51245 -37.52472 35316 ft 434 kts 48°
2026-05-05 19:17 60.54968 -37.42844 35316 ft 433 kts 49°
2026-05-05 19:17 60.58687 -37.33187 35315 ft 433 kts 49°
2026-05-05 19:18 60.62395 -37.23517 35320 ft 434 kts 48°
2026-05-05 19:18 60.66096 -37.13828 35320 ft 433 kts 49°
2026-05-05 19:19 60.69793 -37.04107 35328 ft 434 kts 49°
2026-05-05 19:19 60.73463 -36.94415 35327 ft 434 kts 49°
2026-05-05 19:20 60.77143 -36.84658 35327 ft 434 kts 49°
2026-05-05 19:20 60.80820 -36.74867 35328 ft 434 kts 49°
2026-05-05 19:21 60.84493 -36.65047 35340 ft 434 kts 49°
2026-05-05 19:21 60.88159 -36.55198 35326 ft 435 kts 49°
2026-05-05 19:22 60.91827 -36.45304 35326 ft 435 kts 49°
2026-05-05 19:22 60.95483 -36.35402 35370 ft 432 kts 49°
2026-05-05 19:23 60.99128 -36.25487 35318 ft 435 kts 49°
2026-05-05 19:23 61.02770 -36.15537 35351 ft 435 kts 49°
2026-05-05 19:24 61.06412 -36.05545 35329 ft 436 kts 48°
2026-05-05 19:24 61.10049 -35.95523 35326 ft 436 kts 49°
2026-05-05 19:25 61.13685 -35.85458 35326 ft 436 kts 49°
2026-05-05 19:25 61.17304 -35.75399 35327 ft 436 kts 49°
2026-05-05 19:26 61.20930 -35.65275 35322 ft 437 kts 49°
2026-05-05 19:26 61.24546 -35.55135 35321 ft 437 kts 47°
2026-05-05 19:27 61.28152 -35.44978 35320 ft 437 kts 47°
2026-05-05 19:27 61.31754 -35.34789 35314 ft 437 kts 48°
2026-05-05 19:28 61.35349 -35.24571 35314 ft 437 kts 48°
2026-05-05 19:28 61.38933 -35.14342 35316 ft 437 kts 48°
2026-05-05 19:29 61.42517 -35.04072 35337 ft 438 kts 47°
2026-05-05 19:29 61.46090 -34.93780 35309 ft 437 kts 47°
2026-05-05 19:30 61.49657 -34.83462 35307 ft 438 kts 47°
2026-05-05 19:30 61.53216 -34.73119 35304 ft 438 kts 47°
2026-05-05 19:31 61.56768 -34.62751 35305 ft 438 kts 47°
2026-05-05 19:31 61.60317 -34.52348 35349 ft 438 kts 47°
2026-05-05 19:32 61.63836 -34.41989 35287 ft 439 kts 47°
2026-05-05 19:32 61.67372 -34.31521 35299 ft 439 kts 47°
2026-05-05 19:33 61.70900 -34.21036 35308 ft 439 kts 47°
2026-05-05 19:33 61.74425 -34.10512 35301 ft 439 kts 47°
2026-05-05 19:34 61.77938 -33.99976 35295 ft 439 kts 47°
2026-05-05 19:35 61.83207 -33.84081 35293 ft 440 kts 46°
2026-05-05 19:35 61.86714 -33.73441 35293 ft 440 kts 46°
2026-05-05 19:36 61.90210 -33.62785 35289 ft 440 kts 47°
2026-05-05 19:36 61.93702 -33.52091 35290 ft 441 kts 47°
2026-05-05 19:37 61.97183 -33.41380 35349 ft 441 kts 46°
2026-05-05 19:37 62.00671 -33.30600 35286 ft 443 kts 46°
2026-05-05 19:38 62.04152 -33.19787 35286 ft 443 kts 46°
2026-05-05 19:38 62.07631 -33.08930 35284 ft 443 kts 46°
2026-05-05 19:39 62.11103 -32.98047 35289 ft 443 kts 47°
2026-05-05 19:39 62.14561 -32.87152 35281 ft 443 kts 47°
2026-05-05 19:40 62.18022 -32.76198 35292 ft 445 kts 46°
2026-05-05 19:40 62.21453 -32.65284 35288 ft 445 kts 46°
2026-05-05 19:41 62.24903 -32.54260 35290 ft 445 kts 47°
2026-05-05 19:41 62.28344 -32.43211 35284 ft 445 kts 47°
2026-05-05 19:42 62.31772 -32.32148 35290 ft 445 kts 47°
2026-05-05 19:42 62.35203 -32.21025 35315 ft 447 kts 47°
2026-05-05 19:43 62.38632 -32.09852 35293 ft 447 kts 47°
2026-05-05 19:43 62.42057 -31.98636 35309 ft 448 kts 47°
2026-05-05 19:44 62.45476 -31.87385 35302 ft 448 kts 47°
2026-05-05 19:44 62.48884 -31.76115 35313 ft 448 kts 47°
2026-05-05 19:45 62.52283 -31.64820 35303 ft 448 kts 47°
2026-05-05 19:45 62.55677 -31.53485 35323 ft 448 kts 47°
2026-05-05 19:46 62.59037 -31.42207 35325 ft 448 kts 47°
2026-05-05 19:46 62.62431 -31.30758 35308 ft 448 kts 47°
2026-05-05 19:47 62.65779 -31.19407 35307 ft 449 kts 47°
2026-05-05 19:47 62.69136 -31.07972 35385 ft 449 kts 48°
2026-05-05 19:48 62.72505 -30.96453 35313 ft 452 kts 48°
2026-05-05 19:48 62.75876 -30.84873 35323 ft 452 kts 48°
2026-05-05 19:49 62.79242 -30.73249 35324 ft 452 kts 48°
2026-05-05 19:49 62.82051 -30.63509 35323 ft 453 kts 48°
2026-05-05 19:50 62.85403 -30.51833 35325 ft 453 kts 48°
2026-05-05 19:50 62.88752 -30.40110 35343 ft 455 kts 48°
2026-05-05 19:51 62.92103 -30.28323 35331 ft 455 kts 49°
2026-05-05 19:51 62.95443 -30.16516 35317 ft 456 kts 49°
2026-05-05 19:52 62.98778 -30.04664 35326 ft 456 kts 49°
2026-05-05 19:52 63.00242 -29.98416 35299 ft 470 kts 63°
2026-05-05 19:52 63.01146 -29.91439 35339 ft 475 kts 65°
2026-05-05 19:53 63.03056 -29.77495 35369 ft 476 kts 65°
2026-05-05 19:53 63.04937 -29.63491 35329 ft 476 kts 65°
2026-05-05 19:54 63.06792 -29.49557 35327 ft 477 kts 65°
2026-05-05 19:54 63.08646 -29.35509 35324 ft 477 kts 65°
2026-05-05 19:55 63.10502 -29.21319 35316 ft 477 kts 65°
2026-05-05 19:55 63.12318 -29.07316 35363 ft 478 kts 66°
2026-05-05 19:56 63.14133 -28.93193 35310 ft 477 kts 66°
2026-05-05 19:56 63.15932 -28.79066 35312 ft 478 kts 66°
2026-05-05 19:57 63.17721 -28.64894 35308 ft 478 kts 66°
2026-05-05 19:57 63.19494 -28.50713 35311 ft 478 kts 66°
2026-05-05 19:58 63.21253 -28.36518 35376 ft 478 kts 67°
2026-05-05 19:58 63.23002 -28.22267 35313 ft 479 kts 67°
2026-05-05 19:59 63.24738 -28.07996 35310 ft 480 kts 68°
2026-05-05 19:59 63.26461 -27.93689 35308 ft 480 kts 68°
2026-05-05 20:00 63.28171 -27.79362 35310 ft 480 kts 68°
2026-05-05 20:00 63.29867 -27.65006 35295 ft 480 kts 68°
2026-05-05 20:00 63.30696 -27.57923 35298 ft 467 kts 68°
2026-05-05 20:01 63.31505 -27.51004 35091 ft 457 kts 68°
2026-05-05 20:01 63.32296 -27.44201 34658 ft 455 kts 68°
2026-05-05 20:01 63.33076 -27.37463 34075 ft 455 kts 68°
2026-05-05 20:01 63.33863 -27.30629 33430 ft 457 kts 68°
2026-05-05 20:02 63.34647 -27.23788 32906 ft 455 kts 68°
2026-05-05 20:02 63.35422 -27.17004 32489 ft 450 kts 68°
2026-05-05 20:02 63.36187 -27.10281 32078 ft 446 kts 68°
2026-05-05 20:02 63.36947 -27.03589 31607 ft 444 kts 68°
2026-05-05 20:03 63.37702 -26.96899 31046 ft 445 kts 66°
2026-05-05 20:03 63.38504 -26.90274 30579 ft 438 kts 61°
2026-05-05 20:03 63.39472 -26.83841 30175 ft 437 kts 63°
2026-05-05 20:03 63.40413 -26.77417 29688 ft 435 kts 63°
2026-05-05 20:04 63.41334 -26.71024 29259 ft 431 kts 63°
2026-05-05 20:04 63.42242 -26.64669 28847 ft 428 kts 63°
2026-05-05 20:04 63.43139 -26.58354 28429 ft 424 kts 63°
2026-05-05 20:04 63.44024 -26.52103 28019 ft 421 kts 63°
2026-05-05 20:05 63.44903 -26.45867 27616 ft 419 kts 63°
2026-05-05 20:05 63.45771 -26.39684 27214 ft 416 kts 63°
2026-05-05 20:05 63.46632 -26.33529 26823 ft 414 kts 63°
2026-05-05 20:05 63.47489 -26.27387 26431 ft 412 kts 63°
2026-05-05 20:06 63.48335 -26.21289 26041 ft 410 kts 63°
2026-05-05 20:06 63.49178 -26.15204 25728 ft 408 kts 65°
2026-05-05 20:06 63.50012 -26.09161 25317 ft 407 kts 65°
2026-05-05 20:06 63.50843 -26.03105 24887 ft 406 kts 65°
2026-05-05 20:07 63.51668 -25.97077 24500 ft 404 kts 65°
2026-05-05 20:07 63.52488 -25.91065 24120 ft 402 kts 66°
2026-05-05 20:07 63.53299 -25.85090 23705 ft 401 kts 66°
2026-05-05 20:07 63.54109 -25.79111 23251 ft 399 kts 66°
2026-05-05 20:08 63.54910 -25.73172 22632 ft 401 kts 66°
2026-05-05 20:08 63.55722 -25.67136 21896 ft 406 kts 67°
2026-05-05 20:08 63.56521 -25.61159 21517 ft 402 kts 68°
2026-05-05 20:08 63.57316 -25.55203 21203 ft 395 kts 68°
2026-05-05 20:09 63.58096 -25.49334 20862 ft 390 kts 68°
2026-05-05 20:09 63.58865 -25.43528 20530 ft 386 kts 69°
2026-05-05 20:09 63.59625 -25.37778 20143 ft 382 kts 70°
2026-05-05 20:09 63.60375 -25.32077 19775 ft 378 kts 70°
2026-05-05 20:10 63.61114 -25.26433 19423 ft 374 kts 70°
2026-05-05 20:10 63.61844 -25.20854 19068 ft 370 kts 70°
2026-05-05 20:10 63.62564 -25.15316 18714 ft 367 kts 70°
2026-05-05 20:10 63.63276 -25.09831 18325 ft 363 kts 71°
2026-05-05 20:11 63.63975 -25.04419 17953 ft 359 kts 71°
2026-05-05 20:11 63.64650 -24.99173 17619 ft 348 kts 70°
2026-05-05 20:11 63.65320 -24.93961 17286 ft 337 kts 71°
2026-05-05 20:11 63.65958 -24.88986 16955 ft 333 kts 70°
2026-05-05 20:12 63.66597 -24.84002 16632 ft 330 kts 70°
2026-05-05 20:12 63.67228 -24.79061 16299 ft 326 kts 70°
2026-05-05 20:12 63.67734 -24.74100 15939 ft 327 kts 80°
2026-05-05 20:12 63.67993 -24.69038 15613 ft 324 kts 80°
2026-05-05 20:13 63.68254 -24.64044 15342 ft 319 kts 80°
2026-05-05 20:13 63.68516 -24.59087 15042 ft 321 kts 80°
2026-05-05 20:13 63.68784 -24.54044 14736 ft 327 kts 81°
2026-05-05 20:13 63.69052 -24.48955 14409 ft 327 kts 81°
2026-05-05 20:14 63.69317 -24.43868 14086 ft 327 kts 80°
2026-05-05 20:14 63.69581 -24.38779 13736 ft 326 kts 81°
2026-05-05 20:14 63.69843 -24.33702 13397 ft 325 kts 81°
2026-05-05 20:14 63.70101 -24.28664 13075 ft 323 kts 80°
2026-05-05 20:15 63.70356 -24.23655 12765 ft 320 kts 81°
2026-05-05 20:15 63.70604 -24.18705 12444 ft 316 kts 80°
2026-05-05 20:15 63.70847 -24.13828 12133 ft 311 kts 80°
2026-05-05 20:15 63.71089 -24.09013 11830 ft 307 kts 79°
2026-05-05 20:16 63.71323 -24.04255 11480 ft 304 kts 79°
2026-05-05 20:16 63.71553 -23.99546 11173 ft 300 kts 79°
2026-05-05 20:16 63.71780 -23.94894 10894 ft 295 kts 80°
2026-05-05 20:16 63.72001 -23.90326 10617 ft 291 kts 80°
2026-05-05 20:17 63.72215 -23.85856 10428 ft 283 kts 81°
2026-05-05 20:17 63.72422 -23.81527 10305 ft 273 kts 81°
2026-05-05 20:17 63.72621 -23.77316 10082 ft 267 kts 81°
2026-05-05 20:17 63.72816 -23.73176 9787 ft 263 kts 80°
2026-05-05 20:18 63.73007 -23.69105 9512 ft 259 kts 81°
2026-05-05 20:18 63.73193 -23.65093 9251 ft 255 kts 81°
2026-05-05 20:18 63.73375 -23.61155 9009 ft 250 kts 80°
2026-05-05 20:18 63.73552 -23.57317 8887 ft 241 kts 81°
2026-05-05 20:19 63.73723 -23.53587 8813 ft 241 kts 81°
2026-05-05 20:19 63.73900 -23.49708 8687 ft 254 kts 81°
2026-05-05 20:19 63.74081 -23.45690 8456 ft 258 kts 81°
2026-05-05 20:19 63.74263 -23.41650 8093 ft 260 kts 81°
2026-05-05 20:20 63.74444 -23.37588 7710 ft 261 kts 81°
2026-05-05 20:20 63.74623 -23.33520 7399 ft 259 kts 81°
2026-05-05 20:20 63.74799 -23.29504 7094 ft 256 kts 81°
2026-05-05 20:20 63.74974 -23.25524 6806 ft 253 kts 81°
2026-05-05 20:21 63.75144 -23.21590 6525 ft 251 kts 81°
2026-05-05 20:21 63.75312 -23.17694 6247 ft 247 kts 80°
2026-05-05 20:21 63.75478 -23.13850 5962 ft 244 kts 81°
2026-05-05 20:21 63.75640 -23.10055 5683 ft 242 kts 82°
2026-05-05 20:22 63.75799 -23.06305 5426 ft 238 kts 82°
2026-05-05 20:22 63.75956 -23.02579 5234 ft 235 kts 83°
2026-05-05 20:22 63.76107 -22.98961 5061 ft 228 kts 83°
2026-05-05 20:22 63.76254 -22.95426 4843 ft 224 kts 82°
2026-05-05 20:23 63.76396 -22.91976 4630 ft 218 kts 82°
2026-05-05 20:23 63.76536 -22.88610 4413 ft 212 kts 82°
2026-05-05 20:23 63.76670 -22.85374 4235 ft 206 kts 82°
2026-05-05 20:23 63.76909 -22.82226 4088 ft 195 kts 70°
2026-05-05 20:24 63.77343 -22.79497 4006 ft 182 kts 68°
2026-05-05 20:24 63.77775 -22.76836 3867 ft 179 kts 68°
2026-05-05 20:24 63.78205 -22.74186 3741 ft 180 kts 68°
2026-05-05 20:24 63.78627 -22.71568 3623 ft 172 kts 68°
2026-05-05 20:25 63.79025 -22.69106 3460 ft 161 kts 68°
2026-05-05 20:25 63.79398 -22.66792 3299 ft 154 kts 68°
2026-05-05 20:25 63.79762 -22.64532 3159 ft 153 kts 68°
2026-05-05 20:25 63.80251 -22.62423 3016 ft 151 kts 43°
2026-05-05 20:26 63.81193 -22.61424 2887 ft 153 kts 15°
2026-05-05 20:26 63.82248 -22.60997 2793 ft 155 kts 12°
2026-05-05 20:26 63.83322 -22.60748 2687 ft 155 kts
2026-05-05 20:26 63.84398 -22.60623 2558 ft 155 kts
2026-05-05 20:27 63.85472 -22.60573 2385 ft 152 kts
2026-05-05 20:27 63.86508 -22.60553 2218 ft 148 kts
2026-05-05 20:27 63.87540 -22.60543 2030 ft 148 kts
2026-05-05 20:27 63.88513 -22.60543 1841 ft 134 kts
2026-05-05 20:28 63.89428 -22.60540 1639 ft 129 kts
2026-05-05 20:28 63.90319 -22.60538 1464 ft 128 kts
2026-05-05 20:28 63.91202 -22.60536 1285 ft 127 kts
2026-05-05 20:28 63.92087 -22.60526 1107 ft 128 kts
2026-05-05 20:29 63.92986 -22.60517 941 ft 130 kts
2026-05-05 20:29 63.93899 -22.60550 743 ft 131 kts
2026-05-05 20:29 63.94813 -22.60551 550 ft 131 kts
2026-05-05 20:29 63.95725 -22.60553 347 ft 131 kts
2026-05-05 20:30 63.96618 -22.60552 172 ft 125 kts
2026-05-05 20:30 63.97375 -22.60542 174 ft 89 kts
2026-05-05 20:30 63.97875 -22.60538 173 ft 55 kts
2026-05-05 20:30 63.98235 -22.60541 176 ft 50 kts
2026-05-05 20:31 63.98563 -22.60537 179 ft 45 kts 357°
2026-05-05 20:31 63.98797 -22.60574 178 ft 27 kts 335°
2026-05-05 20:31 63.98877 -22.60772 176 ft 1 kts 314°
2026-05-05 20:31 63.98895 -22.60815 175 ft 7 kts 315°
2026-05-05 20:32 63.98925 -22.60883 174 ft 7 kts 315°
2026-05-05 20:32 63.98978 -22.60940 174 ft 9 kts 352°
2026-05-05 20:32 63.99054 -22.60939 172 ft 13 kts 359°
2026-05-05 20:32 63.99146 -22.60946 167 ft 10 kts 344°
2026-05-05 20:33 63.99173 -22.61115 163 ft 15 kts 269°
2026-05-05 20:33 63.99174 -22.61399 157 ft 18 kts 270°
2026-05-05 20:33 63.99173 -22.61685 150 ft 18 kts 270°
2026-05-05 20:33 63.99173 -22.62008 145 ft 21 kts 270°
2026-05-05 20:34 63.99173 -22.62358 145 ft 22 kts 269°
2026-05-05 20:34 63.99171 -22.62602 145 ft 11 kts 269°
2026-05-05 20:34 63.99201 -22.62675 145 ft 7 kts 358°
2026-05-05 20:34 63.99254 -22.62720 145 ft 10 kts 328°
2026-05-05 20:35 63.99326 -22.62745 145 ft 11 kts 359°
2026-05-05 20:35 63.99381 -22.62730 145 ft 7 kts 19°
2026-05-05 20:35 63.99396 -22.62657 145 ft 6 kts 117°
2026-05-05 20:35 63.99380 -22.62584 145 ft 2 kts 116°
2026-05-05 20:36 63.99374 -22.62556 145 ft 2 kts 116°
2026-05-05 20:36 63.99372 -22.62547 145 ft 0 kts 116°